Location: Lourdes
(43.1000°N, 0.0500°W)
Time: 22:26:06
(UTC+00:00)

Cosmos 1933 Rocket - Visible Passes

Search period start: 11 April 2021 00:00
Search period end: 21 April 2021 00:00
Orbit: 607 x 629 km, 82.5° (Epoch: 11 April)

Date Brightness Start Highest point End Pass type
(mag) Time Alt. Az. Time Alt. Az. Time Alt. Az.
11 Apr 6.3 01:14:47 10° N 01:15:42 16° N 01:15:42 16° N visible
12 Apr 6.2 01:31:57 10° NNW 01:32:40 14° NNW 01:32:40 14° NNW visible
13 Apr 6.5 00:11:52 10° NNE 00:12:30 13° NNE 00:12:30 13° NNE visible
13 Apr 6.3 01:49:23 10° NNW 01:49:37 11° NNW 01:49:37 11° NNW visible
14 Apr 6.4 00:28:31 10° N 00:29:28 16° NNE 00:29:28 16° NNE visible
15 Apr 6.2 00:45:27 10° N 00:46:27 17° N 00:46:27 17° N visible
16 Apr 6.2 01:02:37 10° NNW 01:03:26 15° NNW 01:03:26 15° NNW visible
16 Apr 6.4 23:42:31 10° NNE 23:43:18 14° NNE 23:43:18 14° NNE visible
17 Apr 6.3 01:20:05 10° NNW 01:20:26 12° NNW 01:20:26 12° NNW visible
17 Apr 6.2 23:59:09 10° N 00:00:18 17° NNE 00:00:18 17° NNE visible
19 Apr 6.1 00:16:06 10° N 00:17:19 18° N 00:17:19 18° N visible
19 Apr 6.4 22:57:02 10° NE 22:57:12 10° NE 22:57:12 10° NE visible
20 Apr 6.1 00:33:17 10° NNW 00:34:20 17° NNW 00:34:20 17° NNW visible
20 Apr 6.2 23:13:08 10° NNE 23:14:14 15° NNE 23:14:14 15° NNE visible
